This is the latest recevied weather packets stored in our database for station/object S54A-11. If no packets are shown the sender has not sent any weather packets the latest 10 day(s).
| Time | Temp. | Humidity | Pressure | Rain* | Wind** | Luminosity | Snow |
|---|---|---|---|---|---|---|---|
| 1777850946 | 8.89° C | 38% | 1018 hPa | - | - | - | - |
| 1777850046 | 9.44° C | 35% | 1018 hPa | - | - | - | - |
| 1777849146 | 9.44° C | 36% | 1018.1 hPa | - | - | - | - |
| 1777848246 | 9.44° C | 37% | 1018.2 hPa | - | - | - | - |
| 1777847346 | 9.44° C | 37% | 1018 hPa | - | - | - | - |
| 1777846446 | 10° C | 36% | 1017.7 hPa | - | - | - | - |
| 1777845546 | 10° C | 37% | 1017.7 hPa | - | - | - | - |
| 1777844646 | 10.56° C | 35% | 1017.7 hPa | - | - | - | - |
| 1777843746 | 11.11° C | 36% | 1017.6 hPa | - | - | - | - |
| 1777842846 | 11.67° C | 34% | 1017.4 hPa | - | - | - | - |
| 1777841945 | 11.67° C | 34% | 1017.3 hPa | - | - | - | - |
| 1777841045 | 12.22° C | 34% | 1017.2 hPa | - | - | - | - |
| 1777840145 | 12.78° C | 34% | 1017.5 hPa | - | - | - | - |
| 1777839245 | 12.78° C | 33% | 1017.6 hPa | - | - | - | - |
| 1777838345 | 13.33° C | 33% | 1017.5 hPa | - | - | - | - |
| 1777837445 | 13.89° C | 31% | 1017.4 hPa | - | - | - | - |
| 1777836545 | 15° C | 31% | 1017.4 hPa | - | - | - | - |
| 1777835645 | 15° C | 31% | 1017.4 hPa | - | - | - | - |
| 1777834745 | 15.56° C | 30% | 1017.2 hPa | - | - | - | - |
| 1777833845 | 16.11° C | 29% | 1017.1 hPa | - | - | - | - |
| 1777832945 | 17.22° C | 29% | 1016.8 hPa | - | - | - | - |
| 1777832045 | 18.33° C | 28% | 1016.8 hPa | - | - | - | - |
| 1777831145 | 20° C | 27% | 1016.8 hPa | - | - | - | - |
| 1777830245 | 21.67° C | 25% | 1016.7 hPa | - | - | - | - |
| 1777829345 | 22.78° C | 25% | 1016.7 hPa | - | - | - | - |
* Rain since midnight (hover to see other rain measurements)
** Current wind speed in m/s (hover to see current wind gust speed)